Location: Recife
(8.0585°S, 34.8848°W)
Time: 21:13:18
(UTC-03:00)

A-11 Canister half - Pass Details

Date: 21 April 2026
Orbit: 1515 x 1684 km, 47.2° (Epoch: 12 May)

Event Time Altitude Azimuth Distance (km) Brightness Sun altitude
Rises 23:05:25 0° 216° (SW) 4,786 - -84.8°
Reaches altitude 10° 23:08:35 10° 214° (SW) 3,777 - -85.3°
Maximum altitude 23:18:04 70° 131° (SE) 1,621 - -85.9°
Drops below altitude 10° 23:27:15 10° 48° (NE) 3,669 - -85.3°
Sets 23:30:16 0° 46° (NE) 4,643 - -84.9°
